TimeCST,TemperatureF,Dew PointF,Humidity,Sea Level PressureIn,VisibilityMPH,Wind Direction,Wind SpeedMPH,Gust SpeedMPH,PrecipitationIn,Events,Conditions,WindDirDegrees,DateUTC
6:00 AM,68.0,60.8,78,29.94,8.0,Calm,Calm,-,N/A,,Clear,0,2013-01-08 12:00:00
6:41 AM,68.0,59.0,73,29.94,8.0,Calm,Calm,-,N/A,,Clear,0,2013-01-08 12:41:00
7:40 AM,68.0,59.0,73,29.98,8.0,Calm,Calm,-,N/A,,Scattered Clouds,0,2013-01-08 13:40:00
8:49 AM,69,64,80,29.97,4,East,2.2,,,,Haze,90,2013-01-08 14:49:00
8:55 AM,69.8,59.0,68,30.02,8.0,Calm,Calm,-,N/A,,Mostly Cloudy,0,2013-01-08 14:55:00
9:45 AM,71.6,60.8,69,30.04,8.0,Calm,Calm,-,N/A,,Mostly Cloudy,0,2013-01-08 15:45:00
11:40 AM,75.2,60.8,61,30.02,8.0,Calm,Calm,-,N/A,,Mostly Cloudy,0,2013-01-08 17:40:00
11:49 AM,79,64,51,29.94,5,East,4.5,,,,Haze,90,2013-01-08 17:49:00
12:43 PM,77.0,57.2,50,30.00,8.0,Calm,Calm,-,N/A,,Mostly Cloudy,0,2013-01-08 18:43:00
1:49 PM,77.0,57.2,50,29.97,8.0,Calm,Calm,-,N/A,,Mostly Cloudy,0,2013-01-08 19:49:00
2:40 PM,83,62,38,29.88,6,SE,4.5,,,,Haze,140,2013-01-08 20:40:00
2:43 PM,77.0,60.8,57,29.95,8.0,WSW,11.5,-,N/A,,Mostly Cloudy,250,2013-01-08 20:43:00
3:45 PM,77.0,60.8,57,29.94,8.0,Calm,Calm,-,N/A,,Mostly Cloudy,0,2013-01-08 21:45:00
4:41 PM,75.2,60.8,61,29.94,8.0,WSW,6.9,-,N/A,,Mostly Cloudy,240,2013-01-08 22:41:00
5:40 PM,78,65,57,29.87,5,West,4.5,,,,Haze,270,2013-01-08 23:40:00
5:43 PM,73.4,62.6,69,29.96,6.0,West,11.5,-,N/A,,Mostly Cloudy,270,2013-01-08 23:43:00
6:40 PM,71.6,64.4,78,29.95,6.0,Calm,Calm,-,N/A,,Mostly Cloudy,0,2013-01-09 00:40:00
7:40 PM,71.6,62.6,73,29.96,6.0,Calm,Calm,-,N/A,,Scattered Clouds,0,2013-01-09 01:40:00
8:42 PM,71.6,62.6,73,29.97,6.0,Calm,Calm,-,N/A,,Scattered Clouds,0,2013-01-09 02:42:00
8:51 PM,73,65,69,29.89,5,NE,2.2,,,,Haze,50,2013-01-09 02:51:00
9:43 PM,71.6,62.6,73,29.99,6.0,Calm,Calm,-,N/A,,Scattered Clouds,0,2013-01-09 03:43:00
10:45 PM,71.6,53.6,53,29.99,8.0,Calm,Calm,-,N/A,,Scattered Clouds,0,2013-01-09 04:45:00
11:48 PM,70,64,76,29.91,5,NE,4.5,,,,Haze,50,2013-01-09 05:48:00